Temperature
21 19 16 17 18 19 20 20 18 14 13 14 11 9 9 9 9 8 7 7 7 6 5 4 3 1 -0 -1 -2 -2 -3 -3 -3 -4 -4 -4 -4 -4 -5 -5 -5 -5 -6 -6
19 16 17 19 19 19 20 19 17 14 13 14 11 10 9 9 8 7 7 7 7 6 5 4 2 1 -1 -2 -3 -3 -4 -4 -5 -5 -6 -6 -6 -6 -6 -6 -6 -7 -7 -7
16 16 18 19 17 18 19 16 15 15 12 13 12 10 8 9 8 7 7 7 6 5 4 3 2 0 -1 -3 -3 -4 -5 -5 -6 -6 -6 -6 -6 -6 -6 -7 -7 -7 -8 -8
17 17 18 18 16 16 17 14 14 15 13 12 11 11 8 8 8 8 7 6 5 4 3 2 1 -1 -2 -3 -4 -5 -6 -6 -6 -7 -7 -8 -8 -8 -8 -8 -8 -8 -8 -8
15 15 16 16 15 15 15 14 14 15 14 13 12 11 9 8 8 8 7 6 5 4 3 1 -0 -1 -3 -4 -5 -5 -6 -6 -7 -7 -8 -8 -9 -9 -9 -9 -8 -8 -8 -9
15 16 15 14 15 15 15 15 14 14 13 13 15 13 11 8 7 6 6 6 5 3 2 0 -1 -2 -3 -4 -5 -6 -6 -7 -7 -7 -8 -9 -9 -9 -9 -9 -9 -9 -9 -9
16 16 15 15 15 16 15 15 15 15 14 15 14 14 9 6 6 6 6 5 4 3 1 -0 -2 -3 -4 -5 -5 -6 -7 -7 -7 -8 -8 -9 -10 -10 -10 -10 -10 -10 -10 -10
18 15 14 14 13 13 15 15 13 13 14 14 14 12 6 7 7 7 6 5 3 2 0 -1 -2 -3 -4 -5 -5 -6 -6 -7 -8 -8 -9 -9 -10 -10 -11 -11 -11 -11 -11 -11
16 14 13 13 13 13 14 13 13 12 13 12 14 7 6 7 7 7 6 4 3 1 -0 -1 -2 -3 -4 -5 -6 -6 -7 -7 -8 -9 -9 -10 -10 -11 -11 -11 -11 -12 -12 -12
14 15 14 13 13 13 14 13 12 12 11 11 12 13 7 6 7 6 5 4 2 1 -1 -2 -3 -4 -4 -5 -6 -7 -7 -8 -9 -9 -10 -10 -11 -11 -12 -12 -12 -12 -12 -12
14 14 14 13 14 14 14 14 13 12 12 10 9 9 7 7 7 5 5 3 2 0 -1 -2 -3 -4 -5 -6 -6 -7 -8 -9 -9 -10 -10 -11 -11 -12 -12 -12 -12 -13 -13 -13
12 12 15 13 11 11 12 12 12 11 11 11 10 8 7 7 7 6 4 3 1 -0 -1 -3 -4 -4 -5 -6 -7 -8 -8 -9 -10 -10 -11 -11 -12 -12 -12 -13 -13 -13 -13 -13
11 12 14 12 11 10 11 12 12 11 9 9 9 9 7 8 6 5 4 2 0 -1 -2 -3 -4 -5 -6 -6 -7 -8 -9 -9 -10 -11 -11 -12 -12 -12 -13 -13 -13 -14 -14 -14
9 11 13 14 13 12 12 11 10 10 8 9 10 10 7 6 5 5 4 1 -0 -2 -3 -4 -5 -5 -6 -7 -8 -9 -9 -10 -11 -11 -11 -12 -12 -13 -13 -14 -14 -14 -14 -14
10 11 13 13 13 12 10 10 10 9 9 8 9 8 7 5 5 4 3 1 -1 -2 -3 -4 -5 -5 -6 -7 -8 -9 -10 -10 -11 -11 -12 -12 -12 -13 -14 -14 -14 -15 -14 -14
10 11 12 11 12 10 9 9 9 9 9 9 8 7 6 6 5 4 2 -1 -2 -3 -4 -5 -5 -6 -6 -8 -8 -9 -10 -10 -11 -11 -12 -12 -13 -13 -14 -14 -14 -15 -14 -14
10 10 11 10 12 10 9 11 9 9 9 9 8 7 6 5 4 2 0 -2 -3 -4 -4 -5 -5 -6 -7 -8 -9 -9 -9 -10 -11 -11 -12 -13 -13 -14 -14 -14 -14 -14 -14 -14
10 10 9 9 9 9 11 8 9 9 9 9 9 8 6 4 3 0 -1 -2 -3 -4 -4 -5 -5 -6 -7 -8 -8 -9 -9 -10 -11 -12 -12 -13 -14 -14 -14 -14 -14 -14 -14 -14
8 9 10 7 8 9 9 7 7 8 7 9 8 7 5 4 2 -2 -2 -3 -4 -4 -4 -5 -6 -7 -7 -8 -8 -9 -9 -10 -11 -12 -12 -13 -14 -14 -14 -14 -14 -14 -14 -14
7 7 7 6 6 8 10 7 7 7 5 7 7 5 4 2 -0 -2 -3 -3 -3 -3 -4 -5 -6 -7 -7 -8 -9 -9 -10 -11 -12 -12 -12 -13 -14 -14 -14 -14 -14 -14 -14 -14
7 7 6 6 6 8 7 6 6 5 7 6 5 4 3 1 -1 -2 -3 -3 -3 -4 -4 -5 -6 -7 -8 -8 -9 -9 -10 -11 -11 -12 -12 -13 -13 -14 -13 -13 -13 -13 -14 -14
9 8 7 7 6 7 6 5 4 5 6 5 4 3 2 0 -1 -2 -3 -3 -3 -4 -5 -5 -6 -7 -8 -8 -9 -9 -10 -10 -11 -12 -12 -13 -13 -13 -13 -14 -14 -13 -13 -14
11 11 10 9 9 9 7 7 6 6 5 4 3 2 1 -1 -2 -3 -3 -3 -3 -4 -5 -6 -6 -7 -7 -8 -8 -9 -10 -10 -10 -11 -12 -12 -13 -13 -13 -14 -14 -14 -13 -13
10 11 8 8 9 8 7 6 6 5 5 4 3 2 0 -1 -2 -2 -3 -3 -4 -5 -5 -6 -6 -7 -7 -8 -8 -9 -9 -9 -10 -11 -12 -12 -13 -13 -13 -14 -14 -13 -13 -13
11 7 6 7 9 7 6 6 5 4 4 3 2 1 0 -1 -2 -2 -3 -3 -4 -5 -5 -6 -6 -7 -7 -8 -8 -8 -9 -9 -10 -11 -12 -12 -13 -13 -13 -14 -14 -13 -13 -13
9 9 7 8 10 7 7 6 4 3 3 3 2 1 -1 -1 -1 -2 -3 -3 -4 -5 -5 -6 -6 -6 -7 -7 -8 -8 -8 -9 -10 -11 -12 -12 -13 -13 -13 -14 -14 -14 -14 -14
Wind_Speed
6 8 8 8 7 7 6 7 8 6 2 0 7 8 7 6 2 6 7 6 7 7 8 9 10 10 10 10 12 13 13 14 14 11 11 11 11 11 13 18 21 22 22 23
6 8 7 4 2 4 5 7 5 6 5 2 6 7 8 6 5 4 3 4 7 9 9 10 10 9 10 10 11 12 12 13 13 11 11 9 9 9 13 18 20 21 22 21
9 5 6 6 10 8 5 6 5 3 5 3 4 7 10 8 6 5 2 7 9 10 10 10 10 10 10 10 11 14 12 12 14 18 14 12 7 9 9 10 8 19 22 21
8 5 5 6 9 8 4 5 6 4 4 6 8 4 9 10 8 6 5 9 9 9 9 10 10 10 9 9 9 10 11 9 13 16 11 13 12 12 13 11 9 18 22 21
5 7 8 7 5 6 5 3 6 6 5 4 8 5 6 9 7 5 8 8 7 8 10 10 10 9 8 9 8 9 10 9 11 13 10 10 10 10 10 11 12 10 17 20
5 3 5 5 4 5 9 7 7 5 4 5 4 5 4 3 5 6 6 6 7 9 10 9 9 9 8 9 8 9 10 10 9 10 9 10 11 11 13 13 12 11 9 13
6 5 4 5 6 3 8 7 2 3 4 2 2 2 5 7 7 3 5 7 8 9 9 9 9 9 9 9 9 9 10 11 11 10 10 10 10 10 11 11 11 12 11 10
3 4 5 6 5 5 7 7 4 5 6 5 4 2 6 8 5 2 6 7 9 9 8 8 9 8 8 9 10 10 10 11 11 10 10 8 8 8 7 10 10 10 10 9
7 4 3 3 4 5 6 6 3 4 6 6 2 7 5 4 3 5 6 8 9 9 8 8 8 8 8 9 9 10 10 11 11 11 11 10 8 9 9 9 9 7 10 16
6 1 4 2 3 1 3 3 3 4 6 6 9 1 4 5 3 6 7 8 9 8 8 8 8 8 8 7 8 9 9 10 10 11 11 13 9 9 10 9 11 8 13 18
5 4 4 4 1 3 1 3 2 4 4 3 6 3 6 5 2 6 7 8 8 8 8 8 8 8 7 7 8 8 8 9 9 10 10 11 11 10 11 8 9 11 13 15
5 4 2 4 5 3 4 4 3 3 4 3 5 2 7 5 6 8 7 7 8 8 8 8 8 8 8 8 8 8 8 9 9 10 10 11 11 9 11 11 11 16 14 15
6 4 3 1 1 2 5 4 1 2 3 4 4 3 6 4 8 7 8 9 9 8 8 8 8 8 9 9 9 9 9 9 9 10 11 11 11 11 12 13 13 17 15 12
3 4 3 5 3 1 4 5 6 5 4 6 6 4 2 6 8 8 9 9 9 8 8 8 8 8 9 9 9 9 9 9 10 10 10 11 11 11 12 13 15 16 15 12
2 4 5 8 7 2 5 7 6 9 8 7 8 8 7 8 8 8 9 9 8 8 8 9 9 9 9 10 10 9 9 9 10 10 9 9 10 11 12 14 14 14 14 15
2 4 4 5 3 2 7 9 9 9 9 10 10 6 8 6 8 8 9 8 7 7 8 9 9 10 10 11 10 10 9 9 10 9 9 9 10 11 12 14 14 14 13 12
2 3 3 5 2 5 8 7 11 7 8 6 5 0 6 6 7 6 8 7 6 7 8 8 9 9 10 10 10 10 10 11 10 10 9 9 9 11 13 15 14 12 11 11
1 1 2 4 7 7 5 3 1 5 6 7 5 2 5 6 8 10 8 7 6 6 7 7 8 8 8 8 9 10 10 10 10 10 9 10 10 11 11 11 12 10 9 9
4 2 2 1 5 9 3 4 3 3 6 4 4 4 6 8 5 6 6 6 5 5 5 6 7 8 8 9 10 10 11 10 10 10 11 11 11 11 11 11 11 10 9 9
2 2 1 3 3 7 4 6 5 3 6 5 6 5 6 5 1 2 3 5 5 5 5 6 7 7 8 9 9 10 12 11 11 12 12 12 11 11 11 11 11 10 9 9
3 4 4 6 7 10 4 8 8 4 4 8 7 6 6 4 4 5 6 6 5 6 6 7 8 8 8 9 8 10 11 11 11 12 12 12 11 11 11 9 9 10 10 10
8 6 7 6 6 10 8 9 9 6 6 7 7 7 8 8 8 7 6 5 5 6 7 7 7 8 8 8 8 10 11 11 11 12 12 11 11 12 12 10 9 10 10 8
7 7 5 8 10 2 10 8 6 8 7 7 7 8 8 7 7 6 5 4 5 6 6 6 8 9 8 8 8 10 10 11 11 12 11 10 12 10 9 9 9 9 9 6
6 3 2 7 7 7 9 7 7 7 9 10 9 9 8 7 8 7 4 3 4 4 5 6 7 8 8 8 9 9 9 10 11 13 10 11 11 10 9 10 10 9 9 8
6 8 5 8 4 6 9 9 8 9 12 13 10 8 8 9 8 6 3 2 3 4 4 5 7 7 8 9 9 9 9 11 11 11 9 11 12 10 8 10 10 11 8 12
7 9 9 9 8 8 8 13 12 13 13 13 12 9 8 8 8 6 4 3 2 4 4 6 7 7 8 9 9 9 9 10 11 10 9 9 9 9 8 7 10 18 18 20
Wind_Direction
40 53 34 10 1 330 0 8 74 108 111 152 134 142 149 173 155 46 29 5 358 25 27 31 29 32 19 10 5 355 357 353 351 353 345 343 342 337 334 344 346 347 346 342
83 48 360 342 341 314 3 359 65 133 146 200 155 160 155 168 99 65 317 344 9 19 15 21 22 27 16 10 6 353 356 352 351 351 342 341 333 328 332 342 339 341 341 341
73 27 327 28 23 353 37 40 355 339 141 222 198 190 171 157 147 195 241 36 23 17 14 10 14 19 12 13 8 353 350 351 350 348 343 341 329 332 336 337 334 338 340 336
68 15 336 55 34 352 36 24 316 273 198 207 182 242 166 167 188 191 70 43 26 21 16 13 16 14 9 14 7 353 346 346 347 346 343 342 339 336 333 332 329 335 336 332
69 16 16 34 15 346 325 314 282 274 236 262 190 243 155 156 183 104 51 32 24 25 24 19 16 9 9 15 6 351 341 342 344 344 340 337 333 329 327 328 330 331 331 331
113 85 48 355 291 270 287 251 226 246 239 263 191 195 147 137 97 53 27 18 29 28 28 20 11 5 10 11 1 346 342 344 343 341 336 336 331 330 330 333 332 330 327 331
133 95 62 349 319 331 342 336 293 274 231 224 105 248 100 96 85 57 16 23 36 31 29 15 6 6 7 360 355 348 346 343 342 339 337 333 329 328 327 331 328 328 329 331
170 105 38 19 20 331 327 7 23 325 312 313 213 144 112 118 154 84 40 40 40 35 30 17 11 9 1 355 353 348 345 341 340 339 336 326 327 326 322 324 322 324 326 322
6 90 130 37 352 344 353 41 9 294 275 274 249 110 140 165 206 48 34 45 40 37 24 15 11 7 2 356 352 345 342 340 339 337 333 324 326 323 322 320 318 320 323 325
330 46 126 131 244 122 39 333 312 306 333 309 297 104 145 150 26 21 34 42 38 33 21 16 9 6 0 354 347 343 339 337 335 335 333 331 323 322 323 322 322 322 324 325
333 309 163 197 314 12 290 240 329 272 233 272 300 329 105 115 47 44 41 48 44 34 24 13 7 1 353 351 346 338 337 337 335 332 328 324 322 324 326 324 323 323 322 325
21 325 279 103 70 8 319 338 342 309 303 265 273 288 139 137 74 64 47 52 51 40 29 14 4 353 349 347 342 337 336 337 332 329 327 324 326 327 328 328 327 326 322 325
357 304 275 268 183 235 234 199 236 310 299 268 266 292 160 135 69 57 50 57 48 32 20 9 0 350 347 342 340 336 338 335 330 332 327 326 328 328 329 329 328 325 322 326
331 291 280 301 325 318 253 189 190 215 239 256 255 330 100 60 40 38 51 59 46 22 12 2 354 346 343 339 337 334 338 329 331 331 324 325 325 327 328 328 325 323 325 326
301 289 300 292 289 248 262 269 234 215 235 255 282 335 15 49 35 39 51 52 31 9 5 358 348 341 339 337 333 333 328 324 327 319 317 316 319 322 324 323 321 325 328 328
223 291 306 284 200 247 260 243 243 247 239 252 280 312 80 46 43 33 56 51 21 4 359 350 342 340 338 332 328 327 321 325 318 313 312 315 320 323 323 323 328 331 328 324
199 287 298 287 238 273 272 233 204 215 216 235 256 94 61 38 36 38 73 56 21 7 352 342 338 335 328 323 323 327 329 322 317 315 316 320 319 321 324 331 331 326 324 324
278 236 250 298 336 269 238 27 25 221 242 231 232 58 68 66 59 81 74 55 26 5 346 333 327 320 316 321 326 326 323 319 320 323 328 325 322 320 325 327 322 321 321 320
344 300 286 345 291 278 218 193 182 199 273 222 181 111 80 61 70 83 54 58 44 10 346 326 319 316 326 327 325 325 323 323 328 334 334 332 327 326 327 325 323 324 323 320
312 315 254 160 238 258 238 131 98 77 270 160 129 115 97 77 323 144 94 66 47 14 348 331 327 330 328 320 324 329 327 331 338 338 336 332 328 327 324 323 324 322 324 327
187 197 210 211 235 266 147 128 115 162 248 137 130 122 114 121 136 123 97 66 35 16 350 343 338 331 320 319 333 331 329 337 338 335 331 328 329 328 325 324 323 325 329 331
188 193 214 200 225 259 151 148 184 201 124 125 118 117 118 111 110 104 87 64 32 7 350 347 336 323 318 331 342 332 331 333 335 331 328 331 332 334 343 338 337 336 335 337
214 206 213 208 221 170 160 183 168 129 140 128 118 118 121 124 126 114 93 66 32 6 348 341 331 320 327 343 344 331 328 336 336 331 331 337 333 333 342 345 342 341 337 340
228 148 235 273 250 186 182 144 130 134 127 116 122 125 130 133 124 112 97 62 30 360 342 337 328 328 333 337 335 326 334 341 336 332 337 343 338 338 344 354 351 345 344 358
226 164 220 256 241 140 183 159 144 119 114 114 117 124 134 134 133 134 131 77 28 342 338 335 330 329 328 330 329 332 347 344 337 333 343 347 343 337 348 358 355 356 358 15
205 187 196 232 213 183 195 165 148 143 142 141 138 133 134 139 140 145 146 104 21 338 345 338 329 327 326 330 330 340 350 343 336 342 352 348 342 346 354 357 356 5 11 16
Height
1566 1572 1581 1580 1577 1575 1571 1572 1580 1592 1594 1594 1599 1607 1611 1612 1613 1614 1615 1615 1614 1612 1612 1610 1607 1603 1598 1593 1587 1582 1577 1571 1566 1560 1554 1548 1543 1539 1536 1533 1529 1524 1520 1515
1573 1583 1582 1577 1575 1573 1573 1577 1582 1592 1593 1593 1599 1605 1608 1610 1613 1615 1615 1613 1612 1612 1611 1609 1606 1602 1597 1592 1587 1582 1576 1571 1566 1561 1555 1549 1543 1539 1536 1531 1527 1523 1519 1514
1584 1587 1582 1579 1580 1578 1577 1586 1588 1589 1593 1593 1596 1602 1606 1608 1612 1613 1613 1613 1614 1613 1611 1608 1605 1601 1597 1592 1587 1582 1576 1571 1566 1560 1554 1547 1541 1537 1532 1527 1523 1520 1516 1513
1585 1586 1583 1583 1587 1585 1585 1589 1588 1586 1593 1593 1598 1599 1603 1605 1609 1611 1612 1612 1612 1611 1609 1606 1603 1599 1595 1591 1586 1580 1575 1570 1564 1559 1553 1547 1541 1536 1531 1526 1521 1517 1513 1510
1592 1591 1589 1590 1592 1590 1588 1587 1586 1584 1588 1588 1590 1594 1600 1602 1606 1608 1610 1611 1610 1609 1607 1605 1602 1599 1595 1590 1584 1579 1573 1568 1563 1557 1552 1546 1541 1536 1531 1525 1520 1514 1510 1506
1592 1592 1593 1594 1591 1589 1586 1582 1584 1584 1588 1591 1576 1587 1593 1601 1604 1608 1609 1609 1608 1608 1607 1605 1602 1598 1593 1588 1582 1577 1571 1566 1561 1556 1550 1545 1540 1534 1528 1523 1517 1512 1507 1503
1592 1593 1595 1594 1590 1588 1587 1587 1590 1589 1590 1583 1577 1581 1600 1605 1606 1608 1608 1608 1608 1607 1605 1603 1599 1595 1590 1585 1580 1575 1569 1563 1558 1553 1548 1544 1538 1533 1527 1522 1516 1511 1505 1500
1588 1599 1600 1599 1599 1599 1592 1593 1606 1610 1598 1587 1576 1587 1607 1605 1607 1607 1608 1608 1607 1605 1603 1601 1597 1593 1588 1584 1579 1573 1567 1562 1556 1551 1546 1541 1537 1531 1526 1521 1516 1510 1505 1499
1594 1600 1602 1601 1600 1599 1596 1601 1601 1605 1597 1594 1578 1602 1606 1605 1605 1606 1606 1606 1605 1604 1602 1600 1596 1591 1587 1582 1577 1571 1565 1560 1555 1549 1544 1539 1534 1529 1524 1519 1514 1509 1503 1497
1598 1597 1600 1601 1602 1601 1600 1600 1602 1604 1609 1606 1587 1580 1599 1604 1604 1604 1604 1604 1604 1603 1602 1599 1595 1590 1586 1581 1576 1570 1564 1558 1553 1547 1542 1537 1532 1527 1522 1516 1511 1506 1500 1495
1600 1600 1601 1601 1599 1601 1600 1599 1600 1602 1603 1611 1608 1600 1600 1602 1602 1603 1604 1604 1603 1602 1600 1597 1593 1589 1585 1579 1573 1567 1561 1555 1550 1544 1539 1534 1529 1524 1519 1513 1508 1502 1497 1492
1604 1604 1598 1601 1604 1604 1603 1601 1603 1610 1603 1600 1605 1604 1599 1600 1601 1602 1603 1602 1602 1601 1598 1595 1591 1587 1582 1577 1571 1565 1559 1553 1547 1541 1536 1531 1526 1520 1515 1509 1504 1498 1493 1489
1607 1606 1604 1606 1608 1607 1604 1601 1602 1606 1610 1610 1609 1601 1598 1599 1600 1600 1600 1600 1600 1600 1597 1593 1589 1585 1580 1575 1569 1563 1557 1551 1545 1539 1534 1528 1523 1517 1511 1506 1500 1495 1490 1485
1609 1607 1606 1607 1602 1601 1599 1599 1603 1606 1610 1605 1596 1592 1598 1598 1598 1599 1599 1599 1599 1598 1596 1592 1588 1583 1578 1573 1567 1561 1555 1549 1543 1537 1531 1525 1520 1514 1508 1502 1496 1492 1487 1482
1609 1608 1599 1599 1596 1597 1600 1600 1599 1603 1602 1603 1593 1594 1596 1598 1598 1599 1598 1598 1598 1596 1594 1590 1586 1581 1576 1571 1565 1559 1553 1547 1541 1535 1529 1523 1517 1511 1505 1499 1494 1489 1485 1480
1609 1608 1603 1600 1595 1599 1600 1597 1597 1597 1596 1595 1594 1595 1596 1596 1597 1597 1597 1597 1596 1594 1592 1589 1584 1579 1574 1568 1563 1556 1551 1545 1539 1533 1527 1521 1515 1509 1503 1497 1492 1487 1482 1478
1607 1607 1606 1605 1594 1597 1597 1585 1589 1590 1588 1589 1591 1592 1592 1593 1595 1596 1595 1595 1595 1593 1590 1587 1583 1578 1572 1567 1562 1556 1550 1544 1538 1532 1526 1520 1513 1507 1501 1496 1491 1486 1481 1476
1607 1607 1609 1609 1605 1606 1582 1585 1583 1584 1583 1583 1585 1588 1590 1593 1594 1593 1593 1594 1593 1591 1589 1586 1581 1575 1570 1566 1561 1556 1549 1542 1537 1531 1524 1518 1512 1506 1500 1495 1490 1485 1480 1476
1608 1607 1606 1614 1612 1599 1586 1584 1585 1586 1585 1581 1583 1586 1589 1590 1593 1594 1594 1593 1592 1590 1587 1584 1579 1574 1569 1564 1559 1554 1547 1541 1535 1529 1522 1516 1511 1505 1500 1494 1489 1485 1480 1475
1610 1609 1612 1616 1617 1604 1579 1583 1583 1587 1589 1581 1582 1585 1588 1590 1594 1595 1593 1592 1590 1587 1585 1582 1578 1573 1568 1563 1558 1553 1546 1541 1534 1528 1522 1516 1511 1505 1500 1494 1489 1485 1480 1476
1611 1611 1613 1613 1613 1592 1581 1581 1585 1593 1582 1580 1582 1584 1586 1588 1591 1592 1591 1590 1588 1587 1584 1582 1578 1573 1568 1563 1558 1552 1546 1541 1535 1528 1522 1516 1511 1505 1500 1495 1490 1485 1480 1475
1600 1603 1604 1602 1605 1592 1579 1580 1583 1581 1577 1579 1582 1584 1586 1587 1588 1589 1589 1589 1588 1586 1584 1580 1577 1572 1568 1563 1558 1552 1547 1541 1535 1528 1522 1517 1511 1506 1501 1495 1490 1485 1480 1475
1586 1585 1584 1583 1580 1569 1570 1571 1573 1574 1576 1578 1581 1583 1584 1585 1586 1587 1587 1588 1587 1585 1582 1579 1576 1572 1568 1563 1558 1552 1547 1541 1535 1528 1523 1518 1512 1507 1502 1496 1490 1485 1480 1476
1578 1576 1579 1576 1567 1565 1566 1569 1570 1572 1573 1576 1579 1581 1582 1583 1583 1585 1586 1586 1585 1584 1581 1578 1574 1571 1567 1563 1558 1553 1547 1542 1535 1529 1524 1519 1513 1508 1503 1497 1492 1487 1482 1477
1570 1574 1575 1570 1563 1563 1564 1564 1567 1569 1570 1573 1576 1578 1579 1580 1581 1583 1584 1584 1584 1582 1580 1577 1574 1570 1567 1563 1558 1553 1548 1542 1536 1530 1525 1520 1514 1510 1505 1499 1494 1490 1485 1481
1561 1563 1566 1561 1554 1556 1557 1559 1562 1564 1567 1570 1572 1574 1576 1578 1579 1581 1582 1583 1583 1581 1579 1576 1573 1570 1567 1563 1558 1553 1548 1543 1536 1530 1526 1521 1516 1512 1507 1501 1495 1492 1488 1484